Weather in Russkiy Kandyz

Russia / Orenburg Oblast     54°01′46″N   52°56′03″E
temp.,
°C
wind,
m/s
gust,
m/s
humid.,
%
clouds,
%
prec.,
mm/h
press.,
hPa
HPBL,
m
28 february, sun
sun2823:000sw3599100 4.1 998242
02:00−1w3499100 0.7 998220
05:00−6nw349596 0.8 99893
08:00−10nw239788 0.0 100055
11:00−9n579392 0.1 1001260
14:00−9n579392 0.0 1003361
17:00−10nnw579296 0.1 1006416
20:00−14nnw379498 0.1 1008155
1 march, mon
mon123:00−17nnw239576 0.1 101123
02:00−18nnw229666 0.0 101323
05:00−18nw229677 0.0 101523
08:00−19nnw229680 0.1 101625
11:00−17nnw249378 0.1 1019215
14:00−14nnw338981 0.0 1019317
17:00−14nw359290 0.0 1021337
20:00−20wnw1210085 0.0 102120
2 march, tue
tue223:00−22w2210057 0.0 102120
02:00−23sw221000 0.0 102020
05:00−23ssw3510029 0.0 101882
08:00−20ssw51010099 0.1 1015232
11:00−16s71196100 0.1 1012324
14:00−12ssw81394100 0.4 1009512
17:00−9ssw81494100 1.1 1006653
20:00−8s71494100 0.8 1003575
3 march, wed
wed323:00−5ssw71295100 1.5 1001538
02:00−4ssw61196100 0.8 998431
05:00−4sw4797100 1.4 998235
08:00−4wsw489693 0.1 998275
11:00−3wnw579496 0.3 999514
14:00−3nw5889100 0.1 1001572
17:00−3nw579199 0.1 1002569
20:00−5nw5891100 0.1 1003461
4 march, thu
thu423:00−7wnw3894100 0.1 1005188
02:00−8nw3996100 0.0 1006195
05:00−10nw339693 0.0 100863
08:00−13nw349753 0.0 101081
11:00−11wnw589342 0.0 1012263
14:00−8w579228 0.0 1012432
17:00−7sw6109260 0.1 1012596
20:00−8sw81394100 0.1 1010531